La Grande Iv, Quebec

9:26 AM EDT on July 27, 2017 (GMT -0400)
La Grande Iv

Weather History for CYAH - January, 2013

Change the Weather History Date:

Saturday, January 19, 2013

  Actual Average Record
Temperature  
Mean Temperature -20 °F -  
Max Temperature -11 °F 0 °F 30 °F (1999)
Min Temperature -31 °F -17 °F -38 °F (2012)
Degree Days  
Heating Degree Days 85    
Moisture  
Dew Point -25 °F    
Average Humidity 68    
Maximum Humidity 76    
Minimum Humidity 54    
Precipitation  
Precipitation 0.00 in - - ()
Sea Level Pressure  
Sea Level Pressure 29.87 in    
Wind  
Wind Speed 15 mph ()    
Max Wind Speed 22 mph    
Max Gust Speed 30 mph    
Visibility 4.8 miles    
Events Snow    
Averages and records for this station are not official NWS values.
T = Trace of Precipitation, MM = Missing Value Source: Averaged Metar Reports

Daily Weather History Graph

Daily Weather History Graph

Search for Another Location

Airport or City:

Trip Planner

Search our weather history database for the weather conditions in past years. The results will help you decide how hot, cold, wet, or windy it might be!

Date:

Astronomy

Jan. 19, 2013 Rise Set
Actual Time 7:59 AM EST 4:12 PM EST
Civil Twilight 7:18 AM EST 4:52 PM EST
Nautical Twilight 6:34 AM EST 5:36 PM EST
Astronomical Twilight 5:53 AM EST 6:18 PM EST
Moon 10:48 AM EST (1/19) 1:16 AM EST (1/19)
Length of Visible Light 9h 34m
Length of Day
8h 13m
First Quarter, 57% of the Moon is Illuminated
Jan 19
First Quarter
Jan 26
Full
Feb 3
Last Quarter
Feb 10
New
Feb 17
First Quarter

Hourly Weather History & Observations

Time (EST) Temp. Windchill Dew Point Humidity Pressure Visibility Wind Dir Wind Speed Gust Speed Precip Events Conditions
12:00 AM -11.2 °F -36.4 °F -18.4 °F 70% 29.71 in 1.2 mi WSW 19.6 mph 25.3 mph N/A Snow Light Snow
12:26 AM -11.2 °F -34.4 °F -18.4 °F 70% 29.72 in 1.2 mi West 16.1 mph - N/A Snow Light Snow
12:29 AM -11.2 °F -35.8 °F -18.4 °F 70% 29.72 in 1.5 mi West 18.4 mph - N/A Snow Light Snow
12:59 AM -14.8 °F -41.2 °F -22.0 °F 70% 29.73 in 1.2 mi West 19.6 mph 28.8 mph N/A Snow Light Snow
1:00 AM -15 °F - -22 °F 54% 29.73 in 1 mi West 18.4 mph - - Snow Light Snow
1:00 AM -14.8 °F -41.2 °F -22.0 °F 70% 29.73 in 1.2 mi West 19.6 mph 28.8 mph N/A Snow Light Snow
1:02 AM -14.8 °F -40.5 °F -23.8 °F 64% 29.73 in 1.5 mi West 18.4 mph 28.8 mph N/A Snow Light Snow
1:09 AM -14.8 °F -41.8 °F -23.8 °F 64% 29.73 in 2.5 mi West 20.7 mph 28.8 mph N/A Snow Light Snow
1:11 AM -14.8 °F -42.4 °F -23.8 °F 64% 29.73 in 3.0 mi WSW 21.9 mph 28.8 mph N/A Snow Light Snow
1:19 AM -14.8 °F -42.4 °F -23.8 °F 64% 29.73 in 3.0 mi West 21.9 mph 27.6 mph N/A Snow Light Snow
1:23 AM -14.8 °F -39.1 °F -22.0 °F 70% 29.74 in 2.2 mi West 16.1 mph 27.6 mph N/A Snow Light Snow
1:24 AM -14.8 °F -39.8 °F -22.0 °F 70% 29.74 in 2.2 mi West 17.3 mph 27.6 mph N/A Snow Light Snow
1:29 AM -14.8 °F -39.8 °F -22.0 °F 70% 29.74 in 2.2 mi West 17.3 mph 26.5 mph N/A Snow Light Snow
1:30 AM -14.8 °F -40.5 °F -22.0 °F 70% 29.75 in 2.5 mi West 18.4 mph - N/A Snow Light Snow
1:35 AM -14.8 °F -41.2 °F -22.0 °F 70% 29.74 in 2.0 mi West 19.6 mph - N/A Snow Light Snow
1:40 AM -14.8 °F -42.4 °F -22.0 °F 70% 29.75 in 1.5 mi West 21.9 mph - N/A Snow Light Snow
1:55 AM -13.0 °F -38.8 °F -22.0 °F 64% 29.76 in 1.5 mi West 19.6 mph 29.9 mph N/A Snow Light Snow
2:00 AM -13.0 °F -40.0 °F -22.0 °F 64% 29.76 in 2.2 mi WSW 21.9 mph - N/A Snow Light Snow
2:12 AM -13.0 °F -38.2 °F -20.2 °F 70% 29.77 in 2.5 mi WSW 18.4 mph 27.6 mph N/A Snow Light Snow
2:14 AM -13.0 °F -37.5 °F -20.2 °F 70% 29.76 in 3.0 mi WSW 17.3 mph 27.6 mph N/A Snow Light Snow
2:22 AM -13.0 °F -36.0 °F -20.2 °F 70% 29.77 in 2.2 mi West 15.0 mph 27.6 mph N/A Snow Light Snow
3:00 AM -14.8 °F -39.8 °F -22.0 °F 70% 29.79 in 2.2 mi West 17.3 mph 25.3 mph N/A Snow Light Snow
3:01 AM -14.8 °F -39.1 °F -22.0 °F 70% 29.79 in 2.2 mi WSW 16.1 mph 25.3 mph N/A Snow Light Snow
3:03 AM -14.8 °F -40.5 °F -22.0 °F 70% 29.80 in 2.0 mi WSW 18.4 mph 25.3 mph N/A Snow Light Snow
3:04 AM -16.6 °F -41.4 °F -23.8 °F 70% 29.79 in 2.0 mi West 16.1 mph 25.3 mph N/A Snow Light Snow
3:05 AM -16.6 °F -40.6 °F -23.8 °F 70% 29.80 in 2.0 mi West 15.0 mph 25.3 mph N/A Snow Light Snow
3:24 AM -16.6 °F -41.4 °F -23.8 °F 70% 29.80 in 2.5 mi WSW 16.1 mph - N/A Snow Light Snow
3:44 AM -16.6 °F -40.6 °F -23.8 °F 70% 29.81 in 2.5 mi WSW 15.0 mph - N/A   Haze
3:45 AM -16.6 °F -40.6 °F -23.8 °F 70% 29.81 in 2.0 mi WSW 15.0 mph - N/A   Haze
4:00 AM -14.8 °F -39.8 °F -22.0 °F 70% 29.82 in 1.5 mi WSW 17.3 mph - N/A   Haze
4:05 AM -14.8 °F -39.1 °F -22.0 °F 70% 29.82 in 1.2 mi WSW 16.1 mph 23.0 mph N/A   Haze
4:33 AM -14.8 °F -38.3 °F -22.0 °F 70% 29.82 in 1.0 mi WSW 15.0 mph - N/A Snow Light Snow
4:43 AM -14.8 °F -39.1 °F -22.0 °F 70% 29.83 in 1.0 mi WSW 16.1 mph 21.9 mph N/A   Haze
4:57 AM -16.6 °F -42.1 °F -22.0 °F 76% 29.83 in 1.2 mi WSW 17.3 mph 25.3 mph N/A Snow Light Snow
5:00 AM -16.6 °F -42.9 °F -23.8 °F 70% 29.83 in 1.2 mi WSW 18.4 mph 25.3 mph N/A Snow Light Snow
5:12 AM -18.4 °F -44.5 °F -25.6 °F 70% 29.84 in 1.2 mi WSW 17.3 mph - N/A   Haze
5:15 AM -18.4 °F -42.9 °F -25.6 °F 70% 29.84 in 1.0 mi WSW 15.0 mph 23.0 mph N/A Snow Light Snow
5:26 AM -18.4 °F -44.5 °F -25.6 °F 70% 29.84 in 1.5 mi WSW 17.3 mph - N/A Snow Light Snow
5:30 AM -18.4 °F -42.9 °F -25.6 °F 70% 29.85 in 1.5 mi WSW 15.0 mph 21.9 mph N/A   Haze
5:37 AM -18.4 °F -41.2 °F -23.8 °F 76% 29.85 in 2.5 mi WSW 12.7 mph 19.6 mph N/A   Haze
5:39 AM -16.6 °F -40.6 °F -23.8 °F 70% 29.85 in 3.0 mi WSW 15.0 mph - N/A   Haze
5:47 AM -16.6 °F -40.6 °F -23.8 °F 70% 29.86 in 2.2 mi WSW 15.0 mph 21.9 mph N/A   Haze
6:00 AM -16.6 °F -40.6 °F -23.8 °F 70% 29.86 in 2.0 mi WSW 15.0 mph 23.0 mph N/A   Haze
6:16 AM -16.6 °F -39.8 °F -23.8 °F 70% 29.87 in 2.0 mi WSW 13.8 mph - N/A   Haze
6:33 AM -16.6 °F -38.9 °F -23.8 °F 70% 29.88 in 2.5 mi WSW 12.7 mph - N/A   Haze
6:39 AM -16.6 °F -39.8 °F -23.8 °F 70% 29.88 in 3.0 mi WSW 13.8 mph - N/A   Haze
6:54 AM -20.2 °F -44.4 °F -25.6 °F 76% 29.89 in 6.0 mi WSW 13.8 mph - N/A   Haze
7:00 AM -20 °F - -27 °F 56% 29.89 in 7 mi WSW 13.8 mph - -   Overcast
7:00 AM -20.2 °F -44.4 °F -27.4 °F 69% 29.89 in 7.0 mi WSW 13.8 mph - N/A   Overcast
7:13 AM -20.2 °F -44.4 °F -25.6 °F 76% 29.90 in 5.0 mi WSW 13.8 mph - N/A   Haze
7:34 AM -18.4 °F -40.2 °F -25.6 °F 70% 29.91 in 6.0 mi WSW 11.5 mph - N/A   Haze
7:42 AM -18.4 °F -40.2 °F -25.6 °F 70% 29.91 in 7.0 mi WSW 11.5 mph - N/A   Scattered Clouds
8:00 AM -23.8 °F -46.9 °F -32.8 °F 63% 29.94 in 6.0 mi SW 11.5 mph - N/A   Ice Crystals
9:00 AM -25.6 °F -41.9 °F -32.8 °F 69% 29.98 in 15.0 mi WSW 5.8 mph - N/A   Clear
10:00 AM -22.0 °F -39.4 °F -31.0 °F 63% 30.01 in 15.0 mi WSW 6.9 mph - N/A   Clear
11:00 AM -20.2 °F -40.1 °F -31.0 °F 58% 30.04 in 15.0 mi WSW 9.2 mph - N/A   Partly Cloudy
12:00 PM -20.2 °F -37.3 °F -29.2 °F 63% 30.06 in 15.0 mi West 6.9 mph - N/A   Clear
1:00 PM -13 °F - -21 °F 54% 30.07 in 10 mi WSW 10.4 mph - -  
1:00 PM -18.4 °F -35.1 °F -27.4 °F 63% 30.08 in 15.0 mi West 6.9 mph - N/A   Partly Cloudy
2:00 PM -16.6 °F -34.4 °F -27.4 °F 58% 30.09 in 15.0 mi SW 8.1 mph - N/A   Clear
3:00 PM -16.6 °F -32.9 °F -27.4 °F 58% 30.11 in 15.0 mi SW 6.9 mph - N/A   Partly Cloudy
4:00 PM -18.4 °F -35.1 °F -27.4 °F 63% 29.98 in 15.0 mi SSW 6.9 mph - N/A   Partly Cloudy
5:00 PM -16.6 °F -26.8 °F -22.0 °F 76% 30.12 in 9.0 mi South 3.5 mph - N/A   Clear
6:00 PM -22.0 °F - -27.4 °F 76% 30.14 in 9.0 mi Variable 2.3 mph - N/A   Clear
7:00 PM -21 °F - -26 °F 62% 30.15 in 10 mi WSW 1.2 mph - -  
7:00 PM -20.2 °F - -25.6 °F 76% 30.15 in 9.0 mi Variable 2.3 mph - N/A   Clear
8:00 PM -25.6 °F - -32.8 °F 69% 30.14 in 9.0 mi NE 2.3 mph - N/A   Clear
9:00 PM -27.4 °F - -34.6 °F 69% 30.15 in 9.0 mi Calm Calm - N/A   Clear
10:00 PM -29.2 °F - -34.6 °F 75% 30.15 in 9.0 mi Calm Calm - N/A   Clear
11:00 PM -31.0 °F - -38.2 °F 68% 30.13 in 9.0 mi Calm Calm - N/A   Partly Cloudy